Time,TemperatureF,DewpointF,PressureIn,WindDirection,WindDirectionDegrees,WindSpeedMPH,WindSpeedGustMPH,Humidity,HourlyPrecipIn,Conditions,Clouds,dailyrainin,SoftwareType,DateUTC
2013-03-29 00:06:00,39.7,28.0,30.16,NW,314,5.0,8.0,63,0.00,,,0.00,weatherlink.com 1.10,2013-03-29 04:06:00,
2013-03-29 00:21:00,39.7,27.0,30.16,NW,316,5.0,12.0,62,0.00,,,0.00,weatherlink.com 1.10,2013-03-29 04:21:00,
2013-03-29 00:51:00,39.3,28.0,30.16,NW,311,4.0,14.0,63,0.00,,,0.00,weatherlink.com 1.10,2013-03-29 04:51:00,
2013-03-29 01:06:00,39.0,28.0,30.16,WNW,291,8.0,13.0,64,0.00,,,0.00,weatherlink.com 1.10,2013-03-29 05:06:00,
2013-03-29 01:36:00,37.7,28.0,30.16,WNW,303,1.0,11.0,67,0.00,,,0.00,weatherlink.com 1.10,2013-03-29 05:36:00,
2013-03-29 02:06:00,37.6,28.0,30.16,NNW,333,4.0,4.0,68,0.00,,,0.00,weatherlink.com 1.10,2013-03-29 06:06:00,
2013-03-29 02:21:00,38.1,28.0,30.16,NW,325,5.0,10.0,67,0.00,,,0.00,weatherlink.com 1.10,2013-03-29 06:21:00,
2013-03-29 02:36:00,37.2,28.0,30.16,WNW,291,3.0,8.0,69,0.00,,,0.00,weatherlink.com 1.10,2013-03-29 06:36:00,
2013-03-29 02:51:00,35.7,28.0,30.16,SW,233,2.0,6.0,73,0.00,,,0.00,weatherlink.com 1.10,2013-03-29 06:51:00,
2013-03-29 03:21:00,35.7,28.0,30.16,SSW,210,3.0,4.0,73,0.00,,,0.00,weatherlink.com 1.10,2013-03-29 07:21:00,
2013-03-29 03:36:00,35.9,28.0,30.16,SW,222,0.0,4.0,73,0.00,,,0.00,weatherlink.com 1.10,2013-03-29 07:36:00,
2013-03-29 03:51:00,35.4,28.0,30.15,SW,228,0.0,3.0,73,0.00,,,0.00,weatherlink.com 1.10,2013-03-29 07:51:00,
2013-03-29 04:06:00,35.4,28.0,30.16,SSW,210,0.0,5.0,73,0.00,,,0.00,weatherlink.com 1.10,2013-03-29 08:06:00,
2013-03-29 04:21:00,33.9,27.0,30.16,SE,131,0.0,3.0,77,0.00,,,0.00,weatherlink.com 1.10,2013-03-29 08:21:00,
2013-03-29 04:36:00,33.9,28.0,30.15,SW,236,0.0,3.0,78,0.00,,,0.00,weatherlink.com 1.10,2013-03-29 08:36:00,
2013-03-29 04:51:00,34.1,28.0,30.16,North,7,0.0,3.0,77,0.00,,,0.00,weatherlink.com 1.10,2013-03-29 08:51:00,
2013-03-29 05:06:00,35.0,28.0,30.16,South,172,0.0,6.0,75,0.00,,,0.00,weatherlink.com 1.10,2013-03-29 09:06:00,
2013-03-29 05:21:00,34.5,28.0,30.16,West,280,3.0,5.0,76,0.00,,,0.00,weatherlink.com 1.10,2013-03-29 09:21:00,
2013-03-29 05:36:00,34.6,27.0,30.16,NNE,15,0.0,3.0,75,0.00,,,0.00,weatherlink.com 1.10,2013-03-29 09:36:00,
2013-03-29 05:51:00,34.1,27.0,30.15,West,266,4.0,6.0,76,0.00,,,0.00,weatherlink.com 1.10,2013-03-29 09:51:00,
2013-03-29 06:06:00,34.1,27.0,30.15,WNW,285,0.0,2.0,76,0.00,,,0.00,weatherlink.com 1.10,2013-03-29 10:06:00,
2013-03-29 06:21:00,34.3,27.0,30.15,South,191,3.0,6.0,76,0.00,,,0.00,weatherlink.com 1.10,2013-03-29 10:21:00,
2013-03-29 06:36:00,33.9,27.0,30.16,WNW,299,0.0,6.0,76,0.00,,,0.00,weatherlink.com 1.10,2013-03-29 10:36:00,
2013-03-29 06:52:00,32.8,27.0,30.16,NNW,336,0.0,2.0,78,0.00,,,0.00,weatherlink.com 1.10,2013-03-29 10:52:00,
2013-03-29 07:07:00,33.3,27.0,30.16,NNW,347,0.0,4.0,78,0.00,,,0.00,weatherlink.com 1.10,2013-03-29 11:07:00,
2013-03-29 07:22:00,35.2,28.0,30.17,NW,320,4.0,9.0,74,0.00,,,0.00,weatherlink.com 1.10,2013-03-29 11:22:00,
2013-03-29 07:37:00,36.0,28.0,30.17,SSE,167,1.0,7.0,73,0.00,,,0.00,weatherlink.com 1.10,2013-03-29 11:37:00,
2013-03-29 07:52:00,36.7,28.0,30.17,West,281,0.0,6.0,71,0.00,,,0.00,weatherlink.com 1.10,2013-03-29 11:52:00,
2013-03-29 08:08:00,37.2,29.0,30.17,East,97,0.0,4.0,71,0.00,,,0.00,weatherlink.com 1.10,2013-03-29 12:08:00,
2013-03-29 08:22:00,38.0,29.0,30.17,SW,219,4.0,5.0,69,0.00,,,0.00,weatherlink.com 1.10,2013-03-29 12:22:00,
2013-03-29 08:37:00,39.1,29.0,30.18,SSE,159,2.0,9.0,66,0.00,,,0.00,weatherlink.com 1.10,2013-03-29 12:37:00,
2013-03-29 08:52:00,40.2,29.0,30.17,NW,315,0.0,8.0,64,0.00,,,0.00,weatherlink.com 1.10,2013-03-29 12:52:00,
2013-03-29 09:07:00,40.8,29.0,30.17,NNE,14,4.0,9.0,63,0.00,,,0.00,weatherlink.com 1.10,2013-03-29 13:07:00,
2013-03-29 09:22:00,41.3,29.0,30.16,NW,307,6.0,11.0,61,0.00,,,0.00,weatherlink.com 1.10,2013-03-29 13:22:00,
2013-03-29 09:37:00,41.9,29.0,30.16,NW,304,2.0,11.0,60,0.00,,,0.00,weatherlink.com 1.10,2013-03-29 13:37:00,
2013-03-29 09:52:00,42.5,28.0,30.16,WNW,301,3.0,10.0,58,0.00,,,0.00,weatherlink.com 1.10,2013-03-29 13:52:00,
2013-03-29 10:07:00,43.5,28.0,30.16,WNW,297,7.0,7.0,55,0.00,,,0.00,weatherlink.com 1.10,2013-03-29 14:07:00,
2013-03-29 10:22:00,43.4,28.0,30.16,NW,315,4.0,15.0,55,0.00,,,0.00,weatherlink.com 1.10,2013-03-29 14:22:00,
2013-03-29 10:37:00,44.1,28.0,30.15,WSW,255,9.0,13.0,53,0.00,,,0.00,weatherlink.com 1.10,2013-03-29 14:37:00,
2013-03-29 10:52:00,44.8,29.0,30.16,West,270,3.0,11.0,54,0.00,,,0.00,weatherlink.com 1.10,2013-03-29 14:52:00,
2013-03-29 11:07:00,45.5,29.0,30.16,West,271,5.0,11.0,53,0.00,,,0.00,weatherlink.com 1.10,2013-03-29 15:07:00,
2013-03-29 11:22:00,45.7,28.0,30.15,WNW,303,5.0,13.0,51,0.00,,,0.00,weatherlink.com 1.10,2013-03-29 15:22:00,
2013-03-29 11:37:00,44.4,28.0,30.15,North,359,5.0,13.0,52,0.00,,,0.00,weatherlink.com 1.10,2013-03-29 15:37:00,
2013-03-29 11:52:00,44.9,28.0,30.15,NW,323,6.0,12.0,51,0.00,,,0.00,weatherlink.com 1.10,2013-03-29 15:52:00,
2013-03-29 12:07:00,45.0,28.0,30.14,WSW,249,4.0,17.0,51,0.00,,,0.00,weatherlink.com 1.10,2013-03-29 16:07:00,
2013-03-29 12:22:00,45.2,27.0,30.14,NW,326,5.0,11.0,50,0.00,,,0.00,weatherlink.com 1.10,2013-03-29 16:22:00,
2013-03-29 12:37:00,44.9,28.0,30.14,WNW,297,3.0,16.0,52,0.00,,,0.00,weatherlink.com 1.10,2013-03-29 16:37:00,
2013-03-29 12:52:00,44.8,27.0,30.14,North,355,6.0,11.0,51,0.00,,,0.00,weatherlink.com 1.10,2013-03-29 16:52:00,
2013-03-29 13:07:00,44.8,27.0,30.13,NW,308,4.0,13.0,51,0.00,,,0.00,weatherlink.com 1.10,2013-03-29 17:07:00,
2013-03-29 13:22:00,44.8,27.0,30.13,NW,326,9.0,11.0,50,0.00,,,0.00,weatherlink.com 1.10,2013-03-29 17:22:00,
2013-03-29 13:37:00,44.2,27.0,30.13,NNW,338,6.0,11.0,52,0.00,,,0.00,weatherlink.com 1.10,2013-03-29 17:37:00,
2013-03-29 13:52:00,44.2,27.0,30.13,NW,307,8.0,11.0,52,0.00,,,0.00,weatherlink.com 1.10,2013-03-29 17:52:00,
2013-03-29 14:07:00,44.3,28.0,30.12,WNW,301,5.0,10.0,53,0.00,,,0.00,weatherlink.com 1.10,2013-03-29 18:07:00,
2013-03-29 14:22:00,43.7,27.0,30.12,NW,307,3.0,11.0,53,0.00,,,0.00,weatherlink.com 1.10,2013-03-29 18:22:00,
2013-03-29 14:37:00,43.3,27.0,30.12,NNW,328,9.0,12.0,54,0.00,,,0.00,weatherlink.com 1.10,2013-03-29 18:37:00,
2013-03-29 14:52:00,43.3,27.0,30.11,West,281,3.0,12.0,54,0.00,,,0.00,weatherlink.com 1.10,2013-03-29 18:52:00,
2013-03-29 15:07:00,42.9,28.0,30.12,West,266,4.0,13.0,57,0.00,,,0.00,weatherlink.com 1.10,2013-03-29 19:07:00,
2013-03-29 15:22:00,42.4,28.0,30.12,WNW,302,4.0,9.0,57,0.00,,,0.00,weatherlink.com 1.10,2013-03-29 19:22:00,
2013-03-29 15:37:00,42.6,28.0,30.11,NNW,333,5.0,8.0,57,0.00,,,0.00,weatherlink.com 1.10,2013-03-29 19:37:00,
2013-03-29 15:52:00,42.2,28.0,30.11,NW,318,0.0,11.0,57,0.00,,,0.00,weatherlink.com 1.10,2013-03-29 19:52:00,
2013-03-29 16:07:00,42.0,29.0,30.12,WSW,243,2.0,11.0,60,0.00,,,0.00,weatherlink.com 1.10,2013-03-29 20:07:00,
2013-03-29 16:22:00,41.8,29.0,30.11,NNE,32,0.0,11.0,61,0.00,,,0.00,weatherlink.com 1.10,2013-03-29 20:22:00,
2013-03-29 16:37:00,41.7,29.0,30.11,WNW,295,3.0,8.0,61,0.00,,,0.00,weatherlink.com 1.10,2013-03-29 20:37:00,
2013-03-29 16:52:00,41.9,29.0,30.11,NNW,332,7.0,13.0,61,0.00,,,0.00,weatherlink.com 1.10,2013-03-29 20:52:00,
2013-03-29 17:07:00,41.5,30.0,30.11,WSW,257,5.0,13.0,63,0.00,,,0.00,weatherlink.com 1.10,2013-03-29 21:07:00,
2013-03-29 17:22:00,42.6,30.0,30.11,SW,236,1.0,7.0,61,0.00,,,0.00,weatherlink.com 1.10,2013-03-29 21:22:00,
2013-03-29 17:37:00,42.1,29.0,30.12,North,4,1.0,8.0,61,0.00,,,0.00,weatherlink.com 1.10,2013-03-29 21:37:00,
2013-03-29 17:52:00,41.8,29.0,30.12,NW,304,4.0,10.0,60,0.00,,,0.00,weatherlink.com 1.10,2013-03-29 21:52:00,
2013-03-29 18:07:00,41.6,28.0,30.12,NW,320,11.0,11.0,60,0.00,,,0.00,weatherlink.com 1.10,2013-03-29 22:07:00,
2013-03-29 18:22:00,41.3,29.0,30.12,WNW,302,4.0,13.0,61,0.00,,,0.00,weatherlink.com 1.10,2013-03-29 22:22:00,
2013-03-29 18:37:00,41.1,29.0,30.12,WNW,298,6.0,11.0,62,0.00,,,0.00,weatherlink.com 1.10,2013-03-29 22:37:00,
2013-03-29 18:52:00,41.0,29.0,30.13,West,266,1.0,8.0,63,0.00,,,0.00,weatherlink.com 1.10,2013-03-29 22:52:00,
2013-03-29 19:08:00,40.9,29.0,30.13,West,273,6.0,8.0,63,0.00,,,0.00,weatherlink.com 1.10,2013-03-29 23:08:00,
2013-03-29 19:23:00,40.6,30.0,30.13,NW,308,3.0,8.0,65,0.00,,,0.00,weatherlink.com 1.10,2013-03-29 23:23:00,
2013-03-29 19:38:00,40.5,29.0,30.13,NW,307,6.0,9.0,64,0.00,,,0.00,weatherlink.com 1.10,2013-03-29 23:38:00,
2013-03-29 19:53:00,40.2,30.0,30.13,WSW,253,6.0,7.0,66,0.00,,,0.00,weatherlink.com 1.10,2013-03-29 23:53:00,
2013-03-29 20:08:00,39.9,30.0,30.13,NW,324,2.0,8.0,67,0.00,,,0.00,weatherlink.com 1.10,2013-03-30 00:08:00,
2013-03-29 20:23:00,39.5,30.0,30.14,West,278,6.0,9.0,68,0.00,,,0.00,weatherlink.com 1.10,2013-03-30 00:23:00,
2013-03-29 20:38:00,38.8,29.0,30.14,NNE,31,1.0,5.0,69,0.00,,,0.00,weatherlink.com 1.10,2013-03-30 00:38:00,
2013-03-29 20:53:00,39.2,29.0,30.14,NNW,340,5.0,12.0,68,0.00,,,0.00,weatherlink.com 1.10,2013-03-30 00:53:00,
2013-03-29 21:08:00,38.9,29.0,30.14,West,269,0.0,10.0,67,0.00,,,0.00,weatherlink.com 1.10,2013-03-30 01:08:00,
2013-03-29 21:23:00,39.1,29.0,30.14,NNW,333,6.0,10.0,66,0.00,,,0.00,weatherlink.com 1.10,2013-03-30 01:23:00,
2013-03-29 21:38:00,39.3,28.0,30.15,NW,305,8.0,14.0,65,0.00,,,0.00,weatherlink.com 1.10,2013-03-30 01:38:00,
2013-03-29 21:53:00,39.1,28.0,30.15,NNE,22,6.0,12.0,65,0.00,,,0.00,weatherlink.com 1.10,2013-03-30 01:53:00,
2013-03-29 22:08:00,39.1,28.0,30.16,West,274,0.0,15.0,65,0.00,,,0.00,weatherlink.com 1.10,2013-03-30 02:08:00,
2013-03-29 22:23:00,38.9,28.0,30.16,NW,306,5.0,13.0,65,0.00,,,0.00,weatherlink.com 1.10,2013-03-30 02:23:00,
2013-03-29 22:38:00,38.8,28.0,30.16,NNE,15,1.0,11.0,66,0.00,,,0.00,weatherlink.com 1.10,2013-03-30 02:38:00,
2013-03-29 22:53:00,38.1,28.0,30.16,NNW,330,0.0,7.0,68,0.00,,,0.00,weatherlink.com 1.10,2013-03-30 02:53:00,
2013-03-29 23:08:00,38.4,29.0,30.16,North,355,2.0,9.0,69,0.00,,,0.00,weatherlink.com 1.10,2013-03-30 03:08:00,
2013-03-29 23:23:00,37.5,29.0,30.16,North,355,6.0,6.0,71,0.00,,,0.00,weatherlink.com 1.10,2013-03-30 03:23:00,
2013-03-29 23:38:00,38.9,29.0,30.15,NW,309,4.0,12.0,69,0.00,,,0.00,weatherlink.com 1.10,2013-03-30 03:38:00,
2013-03-29 23:53:00,39.0,30.0,30.15,WNW,303,8.0,9.0,69,0.00,,,0.00,weatherlink.com 1.10,2013-03-30 03:53:00,